Location: Fort Wayne
(41.1310°N, 85.1290°W)
Time: 16:05:12
(UTC-04:00)

Courier 1B Rocket - All Passes

Search period start: 31 October 2014 00:00
Search period end: 09 November 2014 23:00
Orbit: 921 x 1202 km, 28.3° (Epoch: 29 October)

Date Brightness Start Highest point End Pass type
(mag) Time Alt. Az. Time Alt. Az. Time Alt. Az.
31 Oct - 01:27:12 10° SSW 01:32:25 22° SSE 01:37:51 10° ESE night (unlit)
31 Oct - 03:18:53 10° SW 03:25:10 30° S 03:31:42 10° ESE visible
31 Oct - 05:11:58 10° WSW 05:18:04 26° SSW 05:24:16 10° SE visible
31 Oct - 07:07:09 10° SW 07:10:45 14° SSW 07:14:20 10° S visible
01 Nov - 00:27:26 10° SSW 00:31:41 17° SSE 00:36:05 10° ESE night (unlit)
01 Nov - 02:18:18 10° SW 02:24:17 28° S 02:30:33 10° ESE night (unlit)
01 Nov - 04:10:56 10° WSW 04:17:09 29° S 04:23:34 10° SE visible
01 Nov - 06:05:03 10° WSW 06:09:56 18° SSW 06:14:51 10° SSE visible
01 Nov - 23:28:31 10° S 23:31:01 12° SSE 23:33:34 10° SE night (unlit)
02 Nov - 01:17:55 10° SW 01:23:27 25° SSE 01:29:16 10° ESE night (unlit)
02 Nov - 02:10:05 10° WSW 02:16:14 30° S 02:22:41 10° SE visible
02 Nov - 04:03:33 10° WSW 04:09:05 22° SSW 04:14:44 10° SSE visible
02 Nov - 23:17:49 10° SSW 23:22:42 21° SSE 23:27:48 10° ESE night (unlit)
03 Nov - 01:09:24 10° SW 01:15:22 29° S 01:21:39 10° ESE night (unlit)
03 Nov - 03:02:23 10° WSW 03:08:12 25° SSW 03:14:14 10° SE visible
03 Nov - 04:57:33 10° SW 05:00:53 13° SSW 05:04:15 10° S visible
03 Nov - 22:18:08 10° SSW 22:22:01 16° SSE 22:26:02 10° ESE night (unlit)
04 Nov - 00:08:53 10° SW 00:14:32 27° S 00:20:30 10° ESE night (unlit)
04 Nov - 02:01:26 10° WSW 02:07:19 28° S 02:13:30 10° SE night (unlit)
04 Nov - 03:55:29 10° WSW 04:00:04 17° SSW 04:04:46 10° SSE visible
04 Nov - 21:19:25 10° S 21:21:24 11° SSE 21:23:24 10° SE night (unlit)
04 Nov - 23:08:35 10° SW 23:13:46 24° SSE 23:19:14 10° ESE night (unlit)
05 Nov - 01:00:39 10° WSW 01:06:28 29° S 01:12:37 10° SE night (unlit)
05 Nov - 02:54:03 10° WSW 02:59:14 21° SSW 03:04:37 10° SSE visible
05 Nov - 22:08:31 10° SSW 22:13:04 20° SSE 22:17:48 10° ESE night (unlit)
06 Nov - 00:00:02 10° SW 00:05:39 28° S 00:11:36 10° ESE night (unlit)
06 Nov - 01:52:57 10° WSW 01:58:24 24° SSW 02:04:08 10° SE night (unlit)
06 Nov - 03:48:14 10° SW 03:51:03 12° SSW 03:53:55 10° S visible
06 Nov - 21:08:53 10° SSW 21:12:26 15° SSE 21:16:05 10° SE visible
06 Nov - 22:59:34 10° SW 23:04:53 26° S 23:10:29 10° ESE night (unlit)
07 Nov - 00:52:04 10° WSW 00:57:35 26° S 01:03:25 10° SE night (unlit)
07 Nov - 02:46:07 10° SW 02:50:16 16° SSW 02:54:33 10° SSE night (unlit)
07 Nov - 20:10:20 10° SSE 20:11:51 11° SSE 20:13:22 10° SE visible
07 Nov - 21:59:17 10° SW 22:04:10 23° SSE 22:09:17 10° ESE night (unlit)
07 Nov - 23:51:20 10° WSW 23:56:48 27° S 00:02:34 10° SE night (unlit)
08 Nov - 01:44:43 10° WSW 01:49:29 20° SSW 01:54:28 10° SSE night (unlit)
08 Nov - 20:59:15 10° SSW 21:03:31 19° SSE 21:07:56 10° ESE visible
08 Nov - 22:50:45 10° SW 22:56:03 27° S 23:01:37 10° ESE night (unlit)
09 Nov - 00:43:39 10° WSW 00:48:43 23° SSW 00:54:02 10° SE night (unlit)
09 Nov - 02:39:17 10° SW 02:41:17 11° SSW 02:43:19 10° S night (unlit)
09 Nov - 19:59:35 10° SSW 20:02:55 15° SSE 20:06:18 10° SE visible
09 Nov - 21:50:18 10° SW 21:55:20 25° S 22:00:35 10° ESE visible
